Location: Owatonna
(44.0840°N, 93.2260°W)
Time: 00:36:38
(UTC-05:00)

Tiangong 1 - Visible Passes

Search period start: 26 September 2017 00:00
Search period end: 06 October 2017 00:00
Orbit: 303 x 327 km, 42.8° (Epoch: 25 September)

Date Brightness Start Highest point End Pass type
(mag) Time Alt. Az. Time Alt. Az. Time Alt. Az.
03 Oct 3.3 20:11:11 10° S 20:11:33 11° S 20:11:33 11° S visible
04 Oct 2.8 20:22:41 10° SW 20:23:48 18° SSW 20:23:48 18° SSW visible
05 Oct 2.9 20:34:41 10° WSW 20:35:51 21° SW 20:35:51 21° SW visible
